iso_date,epoch_date,Year,Hour,Min,DOY,POS_DOY,Lat,Lon,BP,Ts,Ta,has_bp,has_ts,has_ta,BuoyID,Buoy_Type,Buoy_Owner,Logistics,Hemisphere
2018-08-13T13:00:28Z,1534165229,2018,13,0,225.542,225.542,86.9428,-27.2454,1007.3,7.2,-999.0,yes,yes,no,300234065864130,Calib,AWI-USIABP,ASIMBO2018,North
2018-08-13T13:59:31Z,1534168771,2018,14,0,225.583,225.583,86.9444,-27.2694,1009.7,4.5,-999.0,yes,yes,no,300234065864130,Calib,AWI-USIABP,ASIMBO2018,North
2018-08-13T15:00:00Z,1534172400,2018,15,0,225.625,225.625,86.9458,-27.2964,1009.6,3.1,-999.0,yes,yes,no,300234065864130,Calib,AWI-USIABP,ASIMBO2018,North
2018-08-13T16:00:28Z,1534176029,2018,16,0,225.667,225.667,86.947,-27.3292,1009.4,2.3,-999.0,yes,yes,no,300234065864130,Calib,AWI-USIABP,ASIMBO2018,North
2018-08-13T16:59:31Z,1534179571,2018,17,0,225.708,225.708,86.948,-27.369,1009.3,2.0,-999.0,yes,yes,no,300234065864130,Calib,AWI-USIABP,ASIMBO2018,North
2018-08-13T18:00:00Z,1534183200,2018,18,0,225.75,225.75,86.949,-27.4152,1009.0,2.0,-999.0,yes,yes,no,300234065864130,Calib,AWI-USIABP,ASIMBO2018,North
2018-08-13T19:00:28Z,1534186829,2018,19,0,225.792,225.792,86.9504,-27.4648,1008.5,1.9,-999.0,yes,yes,no,300234065864130,Calib,AWI-USIABP,ASIMBO2018,North
2018-08-13T19:59:31Z,1534190371,2018,20,0,225.833,225.833,86.9518,-27.514,1008.1,1.8,-999.0,yes,yes,no,300234065864130,Calib,AWI-USIABP,ASIMBO2018,North
2018-08-13T21:00:00Z,1534194000,2018,21,0,225.875,225.875,86.9532,-27.5584,1007.6,1.6,-999.0,yes,yes,no,300234065864130,Calib,AWI-USIABP,ASIMBO2018,North
2018-08-13T22:00:28Z,1534197629,2018,22,0,225.917,225.917,86.9548,-27.5958,1007.1,1.5,-999.0,yes,yes,no,300234065864130,Calib,AWI-USIABP,ASIMBO2018,North
2018-08-13T22:59:31Z,1534201171,2018,23,0,225.958,225.958,86.9562,-27.6234,1007.0,1.5,-999.0,yes,yes,no,300234065864130,Calib,AWI-USIABP,ASIMBO2018,North
2018-08-14T00:00:00Z,1534204800,2018,0,0,226.0,226.0,86.9574,-27.6448,1006.5,1.4,-999.0,yes,yes,no,300234065864130,Calib,AWI-USIABP,ASIMBO2018,North
2018-08-14T01:00:28Z,1534208429,2018,1,0,226.042,226.042,86.9582,-27.6612,1006.3,1.3,-999.0,yes,yes,no,300234065864130,Calib,AWI-USIABP,ASIMBO2018,North
2018-08-14T01:59:31Z,1534211971,2018,2,0,226.083,226.083,86.9582,-27.6756,1006.0,1.2,-999.0,yes,yes,no,300234065864130,Calib,AWI-USIABP,ASIMBO2018,North
2018-08-14T03:00:00Z,1534215600,2018,3,0,226.125,226.125,86.9578,-27.6918,1005.5,1.2,-999.0,yes,yes,no,300234065864130,Calib,AWI-USIABP,ASIMBO2018,North
2018-08-14T04:00:28Z,1534219229,2018,4,0,226.167,226.167,86.957,-27.7124,1005.1,1.2,-999.0,yes,yes,no,300234065864130,Calib,AWI-USIABP,ASIMBO2018,North
2018-08-14T04:59:31Z,1534222771,2018,5,0,226.208,226.208,86.9564,-27.7374,1004.8,1.1,-999.0,yes,yes,no,300234065864130,Calib,AWI-USIABP,ASIMBO2018,North
2018-08-14T06:00:00Z,1534226400,2018,6,0,226.25,226.25,86.9558,-27.7666,1004.5,1.1,-999.0,yes,yes,no,300234065864130,Calib,AWI-USIABP,ASIMBO2018,North
2018-08-14T07:00:28Z,1534230029,2018,7,0,226.292,226.292,86.9552,-27.797,1004.1,1.1,-999.0,yes,yes,no,300234065864130,Calib,AWI-USIABP,ASIMBO2018,North
2018-08-14T07:59:31Z,1534233571,2018,8,0,226.333,226.333,86.9548,-27.8246,1004.2,1.2,-999.0,yes,yes,no,300234065864130,Calib,AWI-USIABP,ASIMBO2018,North
2018-08-14T09:00:00Z,1534237200,2018,9,0,226.375,226.375,86.9546,-27.8464,1003.6,1.4,-999.0,yes,yes,no,300234065864130,Calib,AWI-USIABP,ASIMBO2018,North
2018-08-14T10:00:28Z,1534240829,2018,10,0,226.417,226.417,86.9542,-27.8608,1003.4,1.5,-999.0,yes,yes,no,300234065864130,Calib,AWI-USIABP,ASIMBO2018,North
2018-08-14T10:59:31Z,1534244371,2018,11,0,226.458,226.458,86.9536,-27.8674,1003.5,1.5,-999.0,yes,yes,no,300234065864130,Calib,AWI-USIABP,ASIMBO2018,North
2018-08-14T12:00:00Z,1534248000,2018,12,0,226.5,226.5,86.9528,-27.8682,1003.2,1.5,-999.0,yes,yes,no,300234065864130,Calib,AWI-USIABP,ASIMBO2018,North
2018-08-14T13:00:28Z,1534251629,2018,13,0,226.542,226.542,86.9516,-27.8646,1003.1,1.7,-999.0,yes,yes,no,300234065864130,Calib,AWI-USIABP,ASIMBO2018,North
2018-08-14T13:59:31Z,1534255171,2018,14,0,226.583,226.583,86.9504,-27.859,1002.8,1.9,-999.0,yes,yes,no,300234065864130,Calib,AWI-USIABP,ASIMBO2018,North
2018-08-14T15:00:00Z,1534258800,2018,15,0,226.625,226.625,86.9488,-27.8536,1002.4,1.8,-999.0,yes,yes,no,300234065864130,Calib,AWI-USIABP,ASIMBO2018,North
2018-08-14T16:00:28Z,1534262429,2018,16,0,226.667,226.667,86.947,-27.85,1002.2,1.7,-999.0,yes,yes,no,300234065864130,Calib,AWI-USIABP,ASIMBO2018,North
2018-08-14T16:59:31Z,1534265971,2018,17,0,226.708,226.708,86.9452,-27.849,1002.1,1.6,-999.0,yes,yes,no,300234065864130,Calib,AWI-USIABP,ASIMBO2018,North
2018-08-14T18:00:00Z,1534269600,2018,18,0,226.75,226.75,86.9434,-27.85,1001.9,1.5,-999.0,yes,yes,no,300234065864130,Calib,AWI-USIABP,ASIMBO2018,North
2018-08-14T19:00:28Z,1534273229,2018,19,0,226.792,226.792,86.9418,-27.8524,1001.9,1.5,-999.0,yes,yes,no,300234065864130,Calib,AWI-USIABP,ASIMBO2018,North
2018-08-14T19:59:31Z,1534276771,2018,20,0,226.833,226.833,86.94,-27.8544,1001.9,1.4,-999.0,yes,yes,no,300234065864130,Calib,AWI-USIABP,ASIMBO2018,North
2018-08-14T21:00:00Z,1534280400,2018,21,0,226.875,226.875,86.9384,-27.8536,1001.8,1.3,-999.0,yes,yes,no,300234065864130,Calib,AWI-USIABP,ASIMBO2018,North
2018-08-14T22:00:28Z,1534284029,2018,22,0,226.917,226.917,86.9368,-27.8484,1002.0,1.2,-999.0,yes,yes,no,300234065864130,Calib,AWI-USIABP,ASIMBO2018,North
2018-08-14T22:59:31Z,1534287571,2018,23,0,226.958,226.958,86.935,-27.8372,1002.1,1.1,-999.0,yes,yes,no,300234065864130,Calib,AWI-USIABP,ASIMBO2018,North
2018-08-15T00:00:00Z,1534291200,2018,0,0,227.0,227.0,86.933,-27.821,1001.9,1.1,-999.0,yes,yes,no,300234065864130,Calib,AWI-USIABP,ASIMBO2018,North
2018-08-15T01:00:28Z,1534294829,2018,1,0,227.042,227.042,86.9308,-27.8016,1002.0,1.0,-999.0,yes,yes,no,300234065864130,Calib,AWI-USIABP,ASIMBO2018,North
2018-08-15T01:59:31Z,1534298371,2018,2,0,227.083,227.083,86.9284,-27.7814,1002.1,0.8,-999.0,yes,yes,no,300234065864130,Calib,AWI-USIABP,ASIMBO2018,North
2018-08-15T03:00:00Z,1534302000,2018,3,0,227.125,227.125,86.9256,-27.7624,1002.2,0.6,-999.0,yes,yes,no,300234065864130,Calib,AWI-USIABP,ASIMBO2018,North
2018-08-15T04:00:28Z,1534305629,2018,4,0,227.167,227.167,86.9226,-27.7468,1002.2,0.6,-999.0,yes,yes,no,300234065864130,Calib,AWI-USIABP,ASIMBO2018,North
2018-08-15T04:59:31Z,1534309171,2018,5,0,227.208,227.208,86.9198,-27.7368,1002.3,0.6,-999.0,yes,yes,no,300234065864130,Calib,AWI-USIABP,ASIMBO2018,North
2018-08-15T06:00:00Z,1534312800,2018,6,0,227.25,227.25,86.917,-27.7346,1002.5,0.6,-999.0,yes,yes,no,300234065864130,Calib,AWI-USIABP,ASIMBO2018,North
2018-08-15T07:00:28Z,1534316429,2018,7,0,227.292,227.292,86.9144,-27.739,1002.8,0.6,-999.0,yes,yes,no,300234065864130,Calib,AWI-USIABP,ASIMBO2018,North
2018-08-15T07:59:31Z,1534319971,2018,8,0,227.333,227.333,86.9122,-27.7468,1003.0,0.8,-999.0,yes,yes,no,300234065864130,Calib,AWI-USIABP,ASIMBO2018,North
2018-08-15T09:00:00Z,1534323600,2018,9,0,227.375,227.375,86.9104,-27.753,1003.2,1.0,-999.0,yes,yes,no,300234065864130,Calib,AWI-USIABP,ASIMBO2018,North
2018-08-15T10:00:28Z,1534327229,2018,10,0,227.417,227.417,86.9086,-27.7546,1003.4,1.2,-999.0,yes,yes,no,300234065864130,Calib,AWI-USIABP,ASIMBO2018,North
2018-08-15T10:59:31Z,1534330771,2018,11,0,227.458,227.458,86.9066,-27.7504,1003.8,1.4,-999.0,yes,yes,no,300234065864130,Calib,AWI-USIABP,ASIMBO2018,North
2018-08-15T12:00:00Z,1534334400,2018,12,0,227.5,227.5,86.9046,-27.7404,1004.0,1.6,-999.0,yes,yes,no,300234065864130,Calib,AWI-USIABP,ASIMBO2018,North
2018-08-15T13:00:28Z,1534338029,2018,13,0,227.542,227.542,86.9024,-27.7284,1004.1,1.8,-999.0,yes,yes,no,300234065864130,Calib,AWI-USIABP,ASIMBO2018,North
2018-08-15T13:59:31Z,1534341571,2018,14,0,227.583,227.583,86.8998,-27.7178,1004.3,1.8,-999.0,yes,yes,no,300234065864130,Calib,AWI-USIABP,ASIMBO2018,North
2018-08-15T15:00:00Z,1534345200,2018,15,0,227.625,227.625,86.897,-27.7108,1004.4,1.8,-999.0,yes,yes,no,300234065864130,Calib,AWI-USIABP,ASIMBO2018,North
2018-08-15T16:00:28Z,1534348829,2018,16,0,227.667,227.667,86.8944,-27.7078,1004.5,1.8,-999.0,yes,yes,no,300234065864130,Calib,AWI-USIABP,ASIMBO2018,North
2018-08-15T16:59:31Z,1534352371,2018,17,0,227.708,227.708,86.8916,-27.7094,1004.9,1.7,-999.0,yes,yes,no,300234065864130,Calib,AWI-USIABP,ASIMBO2018,North
2018-08-15T18:00:00Z,1534356000,2018,18,0,227.75,227.75,86.8892,-27.7138,1005.1,1.8,-999.0,yes,yes,no,300234065864130,Calib,AWI-USIABP,ASIMBO2018,North
2018-08-15T19:00:28Z,1534359629,2018,19,0,227.792,227.792,86.887,-27.7214,1005.3,1.9,-999.0,yes,yes,no,300234065864130,Calib,AWI-USIABP,ASIMBO2018,North
2018-08-15T19:59:31Z,1534363171,2018,20,0,227.833,227.833,86.885,-27.7314,1005.5,1.9,-999.0,yes,yes,no,300234065864130,Calib,AWI-USIABP,ASIMBO2018,North
2018-08-15T21:00:00Z,1534366800,2018,21,0,227.875,227.875,86.883,-27.7414,1005.8,1.9,-999.0,yes,yes,no,300234065864130,Calib,AWI-USIABP,ASIMBO2018,North
2018-08-15T22:00:28Z,1534370429,2018,22,0,227.917,227.917,86.881,-27.75,1006.0,1.9,-999.0,yes,yes,no,300234065864130,Calib,AWI-USIABP,ASIMBO2018,North
2018-08-15T22:59:31Z,1534373971,2018,23,0,227.958,227.958,86.8792,-27.7556,1006.1,1.8,-999.0,yes,yes,no,300234065864130,Calib,AWI-USIABP,ASIMBO2018,North
2018-08-16T00:00:00Z,1534377600,2018,0,0,228.0,228.0,86.877,-27.7578,1006.2,1.7,-999.0,yes,yes,no,300234065864130,Calib,AWI-USIABP,ASIMBO2018,North
2018-08-16T01:00:28Z,1534381229,2018,1,0,228.042,228.042,86.875,-27.7588,1006.3,1.6,-999.0,yes,yes,no,300234065864130,Calib,AWI-USIABP,ASIMBO2018,North
2018-08-16T01:59:31Z,1534384771,2018,2,0,228.083,228.083,86.8726,-27.76,1006.3,1.5,-999.0,yes,yes,no,300234065864130,Calib,AWI-USIABP,ASIMBO2018,North
2018-08-16T03:00:00Z,1534388400,2018,3,0,228.125,228.125,86.8702,-27.7642,1006.3,1.4,-999.0,yes,yes,no,300234065864130,Calib,AWI-USIABP,ASIMBO2018,North
2018-08-16T04:00:28Z,1534392029,2018,4,0,228.167,228.167,86.8678,-27.7728,1006.5,1.3,-999.0,yes,yes,no,300234065864130,Calib,AWI-USIABP,ASIMBO2018,North
2018-08-16T04:59:31Z,1534395571,2018,5,0,228.208,228.208,86.8656,-27.7876,1006.4,1.3,-999.0,yes,yes,no,300234065864130,Calib,AWI-USIABP,ASIMBO2018,North
2018-08-16T06:00:00Z,1534399200,2018,6,0,228.25,228.25,86.8636,-27.809,1006.4,1.3,-999.0,yes,yes,no,300234065864130,Calib,AWI-USIABP,ASIMBO2018,North
2018-08-16T07:00:28Z,1534402829,2018,7,0,228.292,228.292,86.8618,-27.8362,1006.4,1.3,-999.0,yes,yes,no,300234065864130,Calib,AWI-USIABP,ASIMBO2018,North
2018-08-16T07:59:31Z,1534406371,2018,8,0,228.333,228.333,86.8604,-27.8678,1006.4,1.4,-999.0,yes,yes,no,300234065864130,Calib,AWI-USIABP,ASIMBO2018,North
2018-08-16T09:00:00Z,1534410000,2018,9,0,228.375,228.375,86.8594,-27.9014,1006.2,1.5,-999.0,yes,yes,no,300234065864130,Calib,AWI-USIABP,ASIMBO2018,North
2018-08-16T10:00:28Z,1534413629,2018,10,0,228.417,228.417,86.8586,-27.9348,1005.9,1.5,-999.0,yes,yes,no,300234065864130,Calib,AWI-USIABP,ASIMBO2018,North
2018-08-16T10:59:31Z,1534417171,2018,11,0,228.458,228.458,86.858,-27.9654,1005.7,1.6,-999.0,yes,yes,no,300234065864130,Calib,AWI-USIABP,ASIMBO2018,North
2018-08-16T12:00:00Z,1534420800,2018,12,0,228.5,228.5,86.8574,-27.9924,1005.5,1.7,-999.0,yes,yes,no,300234065864130,Calib,AWI-USIABP,ASIMBO2018,North
2018-08-16T13:00:28Z,1534424429,2018,13,0,228.542,228.542,86.8566,-28.0162,1005.2,1.7,-999.0,yes,yes,no,300234065864130,Calib,AWI-USIABP,ASIMBO2018,North
2018-08-16T13:59:31Z,1534427971,2018,14,0,228.583,228.583,86.856,-28.0378,1004.8,1.7,-999.0,yes,yes,no,300234065864130,Calib,AWI-USIABP,ASIMBO2018,North
2018-08-16T15:00:00Z,1534431600,2018,15,0,228.625,228.625,86.8552,-28.0608,1004.4,1.6,-999.0,yes,yes,no,300234065864130,Calib,AWI-USIABP,ASIMBO2018,North
2018-08-16T16:00:28Z,1534435229,2018,16,0,228.667,228.667,86.8544,-28.0882,1004.1,1.6,-999.0,yes,yes,no,300234065864130,Calib,AWI-USIABP,ASIMBO2018,North
2018-08-16T16:59:31Z,1534438771,2018,17,0,228.708,228.708,86.8538,-28.1208,1003.5,1.4,-999.0,yes,yes,no,300234065864130,Calib,AWI-USIABP,ASIMBO2018,North
2018-08-16T18:00:00Z,1534442400,2018,18,0,228.75,228.75,86.8532,-28.16,1003.2,1.3,-999.0,yes,yes,no,300234065864130,Calib,AWI-USIABP,ASIMBO2018,North
2018-08-16T19:00:28Z,1534446029,2018,19,0,228.792,228.792,86.8532,-28.2048,1002.9,1.2,-999.0,yes,yes,no,300234065864130,Calib,AWI-USIABP,ASIMBO2018,North
2018-08-16T19:59:31Z,1534449571,2018,20,0,228.833,228.833,86.8536,-28.2512,1002.7,1.0,-999.0,yes,yes,no,300234065864130,Calib,AWI-USIABP,ASIMBO2018,North
2018-08-16T21:00:00Z,1534453200,2018,21,0,228.875,228.875,86.8542,-28.2964,1002.4,0.9,-999.0,yes,yes,no,300234065864130,Calib,AWI-USIABP,ASIMBO2018,North
2018-08-16T22:00:28Z,1534456829,2018,22,0,228.917,228.917,86.8552,-28.3376,1002.2,0.6,-999.0,yes,yes,no,300234065864130,Calib,AWI-USIABP,ASIMBO2018,North
2018-08-16T22:59:31Z,1534460371,2018,23,0,228.958,228.958,86.8566,-28.3724,1001.9,0.5,-999.0,yes,yes,no,300234065864130,Calib,AWI-USIABP,ASIMBO2018,North
2018-08-17T00:00:00Z,1534464000,2018,0,0,229.0,229.0,86.8578,-28.3984,1001.7,0.5,-999.0,yes,yes,no,300234065864130,Calib,AWI-USIABP,ASIMBO2018,North
2018-08-17T01:00:28Z,1534467629,2018,1,0,229.042,229.042,86.8588,-28.4164,1001.5,0.4,-999.0,yes,yes,no,300234065864130,Calib,AWI-USIABP,ASIMBO2018,North
2018-08-17T01:59:31Z,1534471171,2018,2,0,229.083,229.083,86.8596,-28.427,1001.2,0.4,-999.0,yes,yes,no,300234065864130,Calib,AWI-USIABP,ASIMBO2018,North
2018-08-17T03:00:00Z,1534474800,2018,3,0,229.125,229.125,86.8602,-28.4344,1000.9,0.4,-999.0,yes,yes,no,300234065864130,Calib,AWI-USIABP,ASIMBO2018,North
2018-08-17T04:00:28Z,1534478429,2018,4,0,229.167,229.167,86.8608,-28.4448,1000.5,0.5,-999.0,yes,yes,no,300234065864130,Calib,AWI-USIABP,ASIMBO2018,North
2018-08-17T04:59:31Z,1534481971,2018,5,0,229.208,229.208,86.8614,-28.4592,1000.4,0.5,-999.0,yes,yes,no,300234065864130,Calib,AWI-USIABP,ASIMBO2018,North
2018-08-17T06:00:00Z,1534485600,2018,6,0,229.25,229.25,86.8624,-28.476,1000.3,0.6,-999.0,yes,yes,no,300234065864130,Calib,AWI-USIABP,ASIMBO2018,North
2018-08-17T07:00:28Z,1534489229,2018,7,0,229.292,229.292,86.8636,-28.4916,1000.2,0.7,-999.0,yes,yes,no,300234065864130,Calib,AWI-USIABP,ASIMBO2018,North
2018-08-17T07:59:31Z,1534492771,2018,8,0,229.333,229.333,86.8652,-28.504,1000.1,0.8,-999.0,yes,yes,no,300234065864130,Calib,AWI-USIABP,ASIMBO2018,North
2018-08-17T09:00:00Z,1534496400,2018,9,0,229.375,229.375,86.8672,-28.5102,1000.3,0.8,-999.0,yes,yes,no,300234065864130,Calib,AWI-USIABP,ASIMBO2018,North
2018-08-17T10:00:28Z,1534500029,2018,10,0,229.417,229.417,86.8694,-28.5044,1000.5,0.9,-999.0,yes,yes,no,300234065864130,Calib,AWI-USIABP,ASIMBO2018,North
2018-08-17T10:59:31Z,1534503571,2018,11,0,229.458,229.458,86.8718,-28.4844,1000.7,0.7,-999.0,yes,yes,no,300234065864130,Calib,AWI-USIABP,ASIMBO2018,North
2018-08-17T12:00:00Z,1534507200,2018,12,0,229.5,229.5,86.8738,-28.454,1000.7,0.7,-999.0,yes,yes,no,300234065864130,Calib,AWI-USIABP,ASIMBO2018,North
2018-08-17T13:00:28Z,1534510829,2018,13,0,229.542,229.542,86.876,-28.417,1000.8,0.8,-999.0,yes,yes,no,300234065864130,Calib,AWI-USIABP,ASIMBO2018,North
2018-08-17T13:59:31Z,1534514371,2018,14,0,229.583,229.583,86.8782,-28.3778,1000.9,0.9,-999.0,yes,yes,no,300234065864130,Calib,AWI-USIABP,ASIMBO2018,North
2018-08-17T15:00:00Z,1534518000,2018,15,0,229.625,229.625,86.88,-28.3414,1000.8,0.9,-999.0,yes,yes,no,300234065864130,Calib,AWI-USIABP,ASIMBO2018,North
2018-08-17T16:00:28Z,1534521629,2018,16,0,229.667,229.667,86.8816,-28.3124,1000.8,0.8,-999.0,yes,yes,no,300234065864130,Calib,AWI-USIABP,ASIMBO2018,North
2018-08-17T16:59:31Z,1534525171,2018,17,0,229.708,229.708,86.8828,-28.2956,1001.1,0.8,-999.0,yes,yes,no,300234065864130,Calib,AWI-USIABP,ASIMBO2018,North
2018-08-17T18:00:00Z,1534528800,2018,18,0,229.75,229.75,86.8836,-28.2866,1001.0,0.9,-999.0,yes,yes,no,300234065864130,Calib,AWI-USIABP,ASIMBO2018,North
2018-08-17T19:00:28Z,1534532429,2018,19,0,229.792,229.792,86.884,-28.2818,1001.2,0.9,-999.0,yes,yes,no,300234065864130,Calib,AWI-USIABP,ASIMBO2018,North
2018-08-17T19:59:31Z,1534535971,2018,20,0,229.833,229.833,86.8848,-28.2836,1001.3,0.9,-999.0,yes,yes,no,300234065864130,Calib,AWI-USIABP,ASIMBO2018,North
2018-08-17T21:00:00Z,1534539600,2018,21,0,229.875,229.875,86.8862,-28.2864,1001.5,0.9,-999.0,yes,yes,no,300234065864130,Calib,AWI-USIABP,ASIMBO2018,North
2018-08-17T22:00:28Z,1534543229,2018,22,0,229.917,229.917,86.8878,-28.282,1001.6,0.9,-999.0,yes,yes,no,300234065864130,Calib,AWI-USIABP,ASIMBO2018,North
2018-08-17T22:59:31Z,1534546771,2018,23,0,229.958,229.958,86.8898,-28.273,1001.9,0.9,-999.0,yes,yes,no,300234065864130,Calib,AWI-USIABP,ASIMBO2018,North
2018-08-18T00:00:00Z,1534550400,2018,0,0,230.0,230.0,86.8922,-28.2578,1002.0,0.9,-999.0,yes,yes,no,300234065864130,Calib,AWI-USIABP,ASIMBO2018,North
2018-08-18T01:00:28Z,1534554029,2018,1,0,230.042,230.042,86.8942,-28.2372,1002.1,1.0,-999.0,yes,yes,no,300234065864130,Calib,AWI-USIABP,ASIMBO2018,North
2018-08-18T01:59:31Z,1534557571,2018,2,0,230.083,230.083,86.8964,-28.2172,1002.3,0.9,-999.0,yes,yes,no,300234065864130,Calib,AWI-USIABP,ASIMBO2018,North
2018-08-18T03:00:00Z,1534561200,2018,3,0,230.125,230.125,86.8988,-28.201,1002.4,1.0,-999.0,yes,yes,no,300234065864130,Calib,AWI-USIABP,ASIMBO2018,North
2018-08-18T04:00:28Z,1534564829,2018,4,0,230.167,230.167,86.9016,-28.1884,1002.4,0.9,-999.0,yes,yes,no,300234065864130,Calib,AWI-USIABP,ASIMBO2018,North
2018-08-18T04:59:31Z,1534568371,2018,5,0,230.208,230.208,86.9042,-28.18,1002.5,0.9,-999.0,yes,yes,no,300234065864130,Calib,AWI-USIABP,ASIMBO2018,North
2018-08-18T06:00:00Z,1534572000,2018,6,0,230.25,230.25,86.9072,-28.176,1002.4,0.8,-999.0,yes,yes,no,300234065864130,Calib,AWI-USIABP,ASIMBO2018,North
2018-08-18T07:00:28Z,1534575629,2018,7,0,230.292,230.292,86.9108,-28.1738,1002.5,0.8,-999.0,yes,yes,no,300234065864130,Calib,AWI-USIABP,ASIMBO2018,North
2018-08-18T07:59:31Z,1534579171,2018,8,0,230.333,230.333,86.9146,-28.1696,1003.0,0.8,-999.0,yes,yes,no,300234065864130,Calib,AWI-USIABP,ASIMBO2018,North
2018-08-18T09:00:00Z,1534582800,2018,9,0,230.375,230.375,86.9186,-28.1668,1003.2,0.8,-999.0,yes,yes,no,300234065864130,Calib,AWI-USIABP,ASIMBO2018,North
2018-08-18T10:00:28Z,1534586429,2018,10,0,230.417,230.417,86.9226,-28.162,1003.2,0.8,-999.0,yes,yes,no,300234065864130,Calib,AWI-USIABP,ASIMBO2018,North
2018-08-18T10:59:31Z,1534589971,2018,11,0,230.458,230.458,86.9264,-28.1444,1003.4,0.8,-999.0,yes,yes,no,300234065864130,Calib,AWI-USIABP,ASIMBO2018,North
2018-08-18T12:00:00Z,1534593600,2018,12,0,230.5,230.5,86.9292,-28.1168,1003.7,0.8,-999.0,yes,yes,no,300234065864130,Calib,AWI-USIABP,ASIMBO2018,North
2018-08-18T13:00:28Z,1534597229,2018,13,0,230.542,230.542,86.931,-28.0822,1004.0,0.9,-999.0,yes,yes,no,300234065864130,Calib,AWI-USIABP,ASIMBO2018,North
2018-08-18T13:59:31Z,1534600771,2018,14,0,230.583,230.583,86.9322,-28.049,1004.1,1.1,-999.0,yes,yes,no,300234065864130,Calib,AWI-USIABP,ASIMBO2018,North
2018-08-18T15:00:00Z,1534604400,2018,15,0,230.625,230.625,86.933,-28.0248,1004.3,1.1,-999.0,yes,yes,no,300234065864130,Calib,AWI-USIABP,ASIMBO2018,North
2018-08-18T16:00:28Z,1534608029,2018,16,0,230.667,230.667,86.9334,-28.0128,1004.4,1.2,-999.0,yes,yes,no,300234065864130,Calib,AWI-USIABP,ASIMBO2018,North
2018-08-18T16:59:31Z,1534611571,2018,17,0,230.708,230.708,86.9338,-28.0174,1004.4,1.3,-999.0,yes,yes,no,300234065864130,Calib,AWI-USIABP,ASIMBO2018,North
2018-08-18T18:00:00Z,1534615200,2018,18,0,230.75,230.75,86.9344,-28.0366,1004.5,1.2,-999.0,yes,yes,no,300234065864130,Calib,AWI-USIABP,ASIMBO2018,North
2018-08-18T19:00:28Z,1534618829,2018,19,0,230.792,230.792,86.9356,-28.0648,1004.9,1.2,-999.0,yes,yes,no,300234065864130,Calib,AWI-USIABP,ASIMBO2018,North
2018-08-18T19:59:31Z,1534622371,2018,20,0,230.833,230.833,86.9374,-28.0932,1005.0,1.1,-999.0,yes,yes,no,300234065864130,Calib,AWI-USIABP,ASIMBO2018,North
2018-08-18T21:00:00Z,1534626000,2018,21,0,230.875,230.875,86.9396,-28.117,1005.1,1.0,-999.0,yes,yes,no,300234065864130,Calib,AWI-USIABP,ASIMBO2018,North
2018-08-18T22:00:28Z,1534629629,2018,22,0,230.917,230.917,86.9418,-28.126,1005.3,0.8,-999.0,yes,yes,no,300234065864130,Calib,AWI-USIABP,ASIMBO2018,North
2018-08-18T22:59:31Z,1534633171,2018,23,0,230.958,230.958,86.9436,-28.1232,1005.4,0.6,-999.0,yes,yes,no,300234065864130,Calib,AWI-USIABP,ASIMBO2018,North
2018-08-19T00:00:00Z,1534636800,2018,0,0,231.0,231.0,86.945,-28.1164,1005.5,0.3,-999.0,yes,yes,no,300234065864130,Calib,AWI-USIABP,ASIMBO2018,North
2018-08-19T01:00:28Z,1534640429,2018,1,0,231.042,231.042,86.9454,-28.1096,1005.9,0.0,-999.0,yes,yes,no,300234065864130,Calib,AWI-USIABP,ASIMBO2018,North
2018-08-19T01:59:31Z,1534643971,2018,2,0,231.083,231.083,86.945,-28.1132,1006.1,-0.3,-999.0,yes,yes,no,300234065864130,Calib,AWI-USIABP,ASIMBO2018,North
2018-08-19T03:00:00Z,1534647600,2018,3,0,231.125,231.125,86.9444,-28.1318,1006.2,-0.4,-999.0,yes,yes,no,300234065864130,Calib,AWI-USIABP,ASIMBO2018,North
2018-08-19T04:00:28Z,1534651229,2018,4,0,231.167,231.167,86.944,-28.1632,1006.1,-0.3,-999.0,yes,yes,no,300234065864130,Calib,AWI-USIABP,ASIMBO2018,North
2018-08-19T04:59:31Z,1534654771,2018,5,0,231.208,231.208,86.9438,-28.2036,1006.4,-0.2,-999.0,yes,yes,no,300234065864130,Calib,AWI-USIABP,ASIMBO2018,North
2018-08-19T06:00:00Z,1534658400,2018,6,0,231.25,231.25,86.944,-28.251,1006.7,-0.2,-999.0,yes,yes,no,300234065864130,Calib,AWI-USIABP,ASIMBO2018,North
2018-08-19T07:00:28Z,1534662029,2018,7,0,231.292,231.292,86.9448,-28.3024,1006.6,-0.2,-999.0,yes,yes,no,300234065864130,Calib,AWI-USIABP,ASIMBO2018,North
2018-08-19T07:59:31Z,1534665571,2018,8,0,231.333,231.333,86.946,-28.347,1006.7,-0.1,-999.0,yes,yes,no,300234065864130,Calib,AWI-USIABP,ASIMBO2018,North
2018-08-19T09:00:00Z,1534669200,2018,9,0,231.375,231.375,86.9472,-28.3826,1007.0,0.0,-999.0,yes,yes,no,300234065864130,Calib,AWI-USIABP,ASIMBO2018,North
2018-08-19T10:00:28Z,1534672829,2018,10,0,231.417,231.417,86.9482,-28.411,1007.0,0.1,-999.0,yes,yes,no,300234065864130,Calib,AWI-USIABP,ASIMBO2018,North
2018-08-19T10:59:31Z,1534676371,2018,11,0,231.458,231.458,86.9484,-28.4342,1007.3,0.2,-999.0,yes,yes,no,300234065864130,Calib,AWI-USIABP,ASIMBO2018,North
2018-08-19T12:00:00Z,1534680000,2018,12,0,231.5,231.5,86.948,-28.4526,1007.2,0.3,-999.0,yes,yes,no,300234065864130,Calib,AWI-USIABP,ASIMBO2018,North
2018-08-19T13:00:28Z,1534683629,2018,13,0,231.542,231.542,86.9468,-28.4734,1007.5,0.6,-999.0,yes,yes,no,300234065864130,Calib,AWI-USIABP,ASIMBO2018,North
2018-08-19T13:59:31Z,1534687171,2018,14,0,231.583,231.583,86.945,-28.5036,1007.4,0.9,-999.0,yes,yes,no,300234065864130,Calib,AWI-USIABP,ASIMBO2018,North
2018-08-19T15:00:00Z,1534690800,2018,15,0,231.625,231.625,86.943,-28.547,1007.3,1.2,-999.0,yes,yes,no,300234065864130,Calib,AWI-USIABP,ASIMBO2018,North
2018-08-19T16:00:28Z,1534694429,2018,16,0,231.667,231.667,86.9414,-28.5996,1007.3,1.3,-999.0,yes,yes,no,300234065864130,Calib,AWI-USIABP,ASIMBO2018,North
2018-08-19T16:59:31Z,1534697971,2018,17,0,231.708,231.708,86.9398,-28.6616,1007.3,1.5,-999.0,yes,yes,no,300234065864130,Calib,AWI-USIABP,ASIMBO2018,North
2018-08-19T18:00:00Z,1534701600,2018,18,0,231.75,231.75,86.9388,-28.7276,1007.4,1.5,-999.0,yes,yes,no,300234065864130,Calib,AWI-USIABP,ASIMBO2018,North
2018-08-19T19:00:28Z,1534705229,2018,19,0,231.792,231.792,86.9382,-28.783,1007.7,1.5,-999.0,yes,yes,no,300234065864130,Calib,AWI-USIABP,ASIMBO2018,North
2018-08-19T19:59:31Z,1534708771,2018,20,0,231.833,231.833,86.938,-28.8296,1007.6,1.5,-999.0,yes,yes,no,300234065864130,Calib,AWI-USIABP,ASIMBO2018,North
2018-08-19T21:00:00Z,1534712400,2018,21,0,231.875,231.875,86.9374,-28.8694,1007.7,1.5,-999.0,yes,yes,no,300234065864130,Calib,AWI-USIABP,ASIMBO2018,North
2018-08-19T22:00:28Z,1534716029,2018,22,0,231.917,231.917,86.9366,-28.906,1008.0,1.4,-999.0,yes,yes,no,300234065864130,Calib,AWI-USIABP,ASIMBO2018,North
2018-08-19T22:59:31Z,1534719571,2018,23,0,231.958,231.958,86.9356,-28.9394,1008.1,1.4,-999.0,yes,yes,no,300234065864130,Calib,AWI-USIABP,ASIMBO2018,North
2018-08-20T00:00:00Z,1534723200,2018,0,0,232.0,232.0,86.934,-28.9722,1008.3,1.3,-999.0,yes,yes,no,300234065864130,Calib,AWI-USIABP,ASIMBO2018,North